Location: 81360 Arifat, France
(43.7204°N, 2.3408°E)
Time: 01:25:47
(UTC+01:00)

Tiros 1 despin weight - All Passes

Search period start: 06 December 2025 00:00
Search period end: 16 December 2025 00:00
Orbit: 559 x 596 km, 48.2° (Epoch: 05 December)

Date Brightness Start Highest point End Pass type
(mag) Time Alt. Az. Time Alt. Az. Time Alt. Az.
06 Dec - 00:03:52 10° WNW 00:07:57 45° N 00:12:00 10° ENE night (unlit)
06 Dec - 01:44:39 10° WNW 01:48:53 83° NNE 01:53:06 10° ESE night (unlit)
06 Dec - 03:25:44 10° W 03:29:12 25° SW 03:32:40 10° SSE night (unlit)
06 Dec - 19:07:45 10° SSE 19:09:32 12° SE 19:11:18 10° ESE visible
06 Dec - 20:45:19 10° SW 20:49:30 58° SSE 20:53:40 10° ENE visible
06 Dec - 22:26:04 10° W 22:30:13 52° NNW 22:34:21 10° ENE night (unlit)
07 Dec - 00:07:11 10° WNW 00:11:18 48° N 00:15:23 10° E night (unlit)
07 Dec - 01:47:54 10° WNW 01:52:06 73° SSW 01:56:18 10° ESE night (unlit)
07 Dec - 03:29:32 10° W 03:32:12 16° SW 03:34:52 10° S night (unlit)
07 Dec - 19:09:26 10° S 19:12:30 19° SE 19:15:33 10° E visible
07 Dec - 20:48:25 10° WSW 20:52:41 82° SSE 20:56:55 10° ENE visible
07 Dec - 22:29:26 10° W 22:33:32 47° N 22:37:37 10° ENE night (unlit)
08 Dec - 00:10:27 10° WNW 00:14:37 55° NNE 00:18:45 10° E night (unlit)
08 Dec - 01:51:10 10° WNW 01:55:16 51° SSW 01:59:20 10° SE night (unlit)
08 Dec - 03:34:41 10° SW 03:35:08 10° SW 03:35:36 10° SW night (unlit)
08 Dec - 19:11:48 10° SSW 19:15:30 29° SE 19:19:12 10° E visible
08 Dec - 20:51:37 10° WSW 20:55:54 76° NNW 21:00:08 10° ENE visible
08 Dec - 22:32:47 10° WNW 22:36:52 44° N 22:40:55 10° ENE night (unlit)
09 Dec - 00:13:40 10° WNW 00:17:53 68° NNE 00:22:05 10° ESE night (unlit)
09 Dec - 01:54:31 10° WNW 01:58:21 34° SW 02:02:10 10° SSE night (unlit)
09 Dec - 19:14:29 10° SW 19:18:33 43° SE 19:22:35 10° ENE visible
09 Dec - 20:54:54 10° W 20:59:08 60° NNW 21:03:20 10° ENE visible
09 Dec - 22:36:06 10° WNW 22:40:11 45° N 22:44:15 10° ENE night (unlit)
10 Dec - 00:16:52 10° WNW 00:21:07 87° NNE 00:25:19 10° ESE night (unlit)
10 Dec - 01:58:01 10° W 02:01:22 23° SW 02:04:42 10° SSE night (unlit)
10 Dec - 17:39:28 10° SSE 17:41:39 14° SE 17:43:48 10° ESE visible
10 Dec - 19:17:24 10° SW 19:21:39 62° SSE 19:25:52 10° ENE visible
10 Dec - 20:58:13 10° W 21:02:23 51° N 21:06:32 10° ENE visible
10 Dec - 22:39:21 10° WNW 22:43:29 49° N 22:47:35 10° E night (unlit)
11 Dec - 00:20:04 10° WNW 00:24:16 69° SSW 00:28:26 10° SE night (unlit)
11 Dec - 02:01:52 10° W 02:04:18 15° SW 02:06:45 10° S night (unlit)
11 Dec - 17:41:18 10° S 17:44:34 21° SE 17:47:48 10° E visible
11 Dec - 19:20:29 10° WSW 19:24:47 86° SSE 19:29:03 10° ENE visible
11 Dec - 21:01:32 10° W 21:05:40 46° N 21:09:46 10° ENE visible
11 Dec - 22:42:33 10° WNW 22:46:45 57° NNE 22:50:54 10° E night (unlit)
12 Dec - 00:23:17 10° WNW 00:27:21 47° SSW 00:31:23 10° SE night (unlit)
12 Dec - 17:43:42 10° SSW 17:47:32 31° SE 17:51:20 10° E visible
12 Dec - 19:23:39 10° WSW 19:27:57 73° NNW 19:32:12 10° ENE visible
12 Dec - 21:04:50 10° WNW 21:08:57 45° N 21:13:01 10° ENE visible
12 Dec - 22:45:43 10° WNW 22:49:58 71° NNE 22:54:09 10° ESE night (unlit)
13 Dec - 00:26:36 10° W 00:30:22 32° SW 00:34:07 10° SSE night (unlit)
13 Dec - 17:46:24 10° SW 17:50:32 46° SSE 17:54:39 10° ENE visible
13 Dec - 19:26:54 10° W 19:31:09 59° NNW 19:35:21 10° ENE visible
13 Dec - 21:08:05 10° WNW 21:12:13 46° N 21:16:18 10° E visible
13 Dec - 22:48:51 10° WNW 22:53:07 89° SSW 22:57:20 10° ESE night (unlit)
14 Dec - 00:30:05 10° W 00:33:19 21° SW 00:36:32 10° S night (unlit)
14 Dec - 16:11:03 10° S 16:13:32 15° SE 16:16:00 10° E daylight
14 Dec - 17:49:18 10° SW 17:53:36 67° SSE 17:57:50 10° ENE visible
14 Dec - 19:30:10 10° W 19:34:22 50° N 19:38:31 10° ENE visible
14 Dec - 21:11:17 10° WNW 21:15:27 50° N 21:19:35 10° E visible
14 Dec - 22:52:00 10° WNW 22:56:12 65° SSW 23:00:22 10° SE night (unlit)
15 Dec - 00:34:00 10° WSW 00:36:12 14° SW 00:38:24 10° SSW night (unlit)
15 Dec - 16:12:59 10° S 16:16:25 23° SE 16:19:49 10° E daylight
15 Dec - 17:52:20 10° WSW 17:56:40 90° WNW 18:00:58 10° ENE visible
15 Dec - 19:33:26 10° W 19:37:35 46° N 19:41:42 10° ENE visible
15 Dec - 21:14:26 10° WNW 21:18:39 59° NNE 21:22:50 10° E visible
15 Dec - 22:55:11 10° WNW 22:59:14 44° SW 23:03:14 10° SE night (unlit)
